Météo par heure à Jurcz

Ce jour, 17 Juin, Jeudi

Heure Température Précipitation Vent Pression Humidité
00:00 +18°C° 0 mm 3 m/s 754 mmHg 88%
01:00 +18°C° 0 mm 3 m/s 754 mmHg 90%
02:00 +18°C° 0 mm 3 m/s 754 mmHg 91%
03:00 +17°C° 0 mm 3 m/s 754 mmHg 91%
04:00 +17°C° 0 mm 2 m/s 754 mmHg 91%
05:00 +19°C° 0 mm 3 m/s 754 mmHg 85%
06:00 +21°C° 0 mm 3 m/s 754 mmHg 78%
07:00 +22°C° 0 mm 3 m/s 754 mmHg 71%
08:00 +25°C° 0 mm 4 m/s 754 mmHg 66%
09:00 +26°C° 0 mm 4 m/s 755 mmHg 60%
10:00 +28°C° 0 mm 5 m/s 755 mmHg 55%
11:00 +29°C° 0 mm 5 m/s 755 mmHg 52%
12:00 +29°C° 0 mm 5 m/s 755 mmHg 49%
13:00 +30°C° 0 mm 5 m/s 754 mmHg 46%
14:00 +30°C° 0 mm 5 m/s 754 mmHg 47%
15:00 +30°C° 0 mm 4 m/s 754 mmHg 47%
16:00 +30°C° 0 mm 4 m/s 754 mmHg 47%
17:00 +29°C° 0 mm 4 m/s 754 mmHg 54%
18:00 +27°C° 0 mm 3 m/s 754 mmHg 62%
19:00 +26°C° 0 mm 3 m/s 754 mmHg 69%
20:00 +25°C° 0 mm 3 m/s 754 mmHg 71%
21:00 +23°C° 0 mm 4 m/s 754 mmHg 72%
22:00 +22°C° 0 mm 4 m/s 754 mmHg 73%
23:00 +21°C° 0 mm 4 m/s 754 mmHg 76%

Demain, 18 Juin, Vendredi

Heure Température Précipitation Vent Pression Humidité
00:00 +20°C° 0 mm 3 m/s 754 mmHg 79%
01:00 +19°C° 0 mm 3 m/s 754 mmHg 82%
02:00 +18°C° 0 mm 3 m/s 754 mmHg 82%
03:00 +18°C° 0 mm 3 m/s 754 mmHg 83%
04:00 +18°C° 0 mm 3 m/s 754 mmHg 83%
05:00 +19°C° 0 mm 3 m/s 754 mmHg 78%
06:00 +21°C° 0 mm 3 m/s 754 mmHg 73%
07:00 +24°C° 0 mm 3 m/s 754 mmHg 68%
08:00 +26°C° 0 mm 3 m/s 754 mmHg 63%
09:00 +27°C° 0 mm 3 m/s 754 mmHg 58%
10:00 +29°C° 0 mm 3 m/s 754 mmHg 53%
11:00 +30°C° 0 mm 3 m/s 754 mmHg 50%
12:00 +31°C° 0 mm 3 m/s 753 mmHg 47%
13:00 +31°C° 0 mm 3 m/s 753 mmHg 45%
14:00 +33°C° 0 mm 3 m/s 753 mmHg 45%
15:00 +33°C° 0 mm 3 m/s 753 mmHg 46%
16:00 +33°C° 0 mm 3 m/s 753 mmHg 47%
17:00 +30°C° 0 mm 3 m/s 753 mmHg 53%
18:00 +29°C° 0 mm 3 m/s 752 mmHg 60%
19:00 +28°C° 0 mm 2 m/s 752 mmHg 66%
20:00 +26°C° 0 mm 2 m/s 753 mmHg 69%
21:00 +25°C° 0 mm 3 m/s 753 mmHg 72%
22:00 +22°C° 0 mm 3 m/s 753 mmHg 75%
23:00 +22°C° 0 mm 3 m/s 753 mmHg 77%

Après-demain, 19 Juin, Samedi

Heure Température Précipitation Vent Pression Humidité
00:00 +21°C° 0 mm 2 m/s 753 mmHg 79%
01:00 +20°C° 0 mm 2 m/s 753 mmHg 81%
02:00 +20°C° 0 mm 2 m/s 753 mmHg 80%
03:00 +20°C° 0 mm 2 m/s 753 mmHg 79%
04:00 +19°C° 0 mm 2 m/s 753 mmHg 78%
05:00 +21°C° 0 mm 2 m/s 753 mmHg 74%
06:00 +24°C° 0 mm 2 m/s 753 mmHg 69%
07:00 +26°C° 0 mm 3 m/s 753 mmHg 65%
08:00 +28°C° 0 mm 2 m/s 753 mmHg 59%
09:00 +29°C° 0 mm 2 m/s 753 mmHg 53%
10:00 +31°C° 0 mm 2 m/s 753 mmHg 47%
11:00 +32°C° 0 mm 2 m/s 752 mmHg 45%
12:00 +34°C° 0 mm 2 m/s 752 mmHg 42%
13:00 +34°C° 0 mm 2 m/s 752 mmHg 40%
14:00 +34°C° 0 mm 2 m/s 752 mmHg 41%
15:00 +34°C° 0 mm 2 m/s 752 mmHg 42%
16:00 +34°C° 0 mm 2 m/s 751 mmHg 43%
17:00 +30°C° 0.6 mm 2 m/s 752 mmHg 55%
18:00 +27°C° 0.6 mm 3 m/s 752 mmHg 66%
19:00 +23°C° 0.6 mm 4 m/s 752 mmHg 78%
20:00 +22°C° 0.3 mm 3 m/s 752 mmHg 81%
21:00 +21°C° 0.3 mm 2 m/s 753 mmHg 84%
22:00 +21°C° 0.3 mm 2 m/s 753 mmHg 87%
23:00 +21°C° 0.1 mm 1 m/s 753 mmHg 89%

20 Juin, Dimanche

Heure Température Précipitation Vent Pression Humidité
00:00 +21°C° 0.1 mm 1 m/s 752 mmHg 91%
01:00 +21°C° 0.1 mm 1 m/s 752 mmHg 92%
02:00 +21°C° 0 mm 1 m/s 752 mmHg 93%
03:00 +19°C° 0 mm 0 m/s 752 mmHg 93%
04:00 +18°C° 0 mm 0 m/s 752 mmHg 94%
05:00 +20°C° 0 mm 0 m/s 752 mmHg 90%
06:00 +23°C° 0 mm 1 m/s 752 mmHg 85%
07:00 +24°C° 0 mm 1 m/s 752 mmHg 81%
08:00 +26°C° 0 mm 2 m/s 751 mmHg 75%
09:00 +27°C° 0 mm 2 m/s 751 mmHg 69%
10:00 +29°C° 0 mm 2 m/s 751 mmHg 63%
11:00 +30°C° 0 mm 3 m/s 751 mmHg 59%
12:00 +31°C° 0 mm 3 m/s 750 mmHg 55%
13:00 +33°C° 0 mm 3 m/s 750 mmHg 51%
14:00 +33°C° 0 mm 3 m/s 750 mmHg 50%
15:00 +33°C° 0 mm 4 m/s 749 mmHg 49%
16:00 +33°C° 0 mm 4 m/s 749 mmHg 49%
17:00 +32°C° 0 mm 4 m/s 749 mmHg 55%
18:00 +30°C° 0 mm 4 m/s 748 mmHg 61%
19:00 +28°C° 0 mm 3 m/s 748 mmHg 68%
20:00 +27°C° 0 mm 3 m/s 748 mmHg 69%
21:00 +26°C° 0 mm 3 m/s 748 mmHg 71%
22:00 +24°C° 0 mm 3 m/s 749 mmHg 73%
23:00 +24°C° 0.1 mm 3 m/s 749 mmHg 77%

21 Juin, Lundi

Heure Température Précipitation Vent Pression Humidité
00:00 +22°C° 0.1 mm 3 m/s 748 mmHg 82%
01:00 +21°C° 0.1 mm 3 m/s 748 mmHg 86%
02:00 +21°C° 0 mm 3 m/s 748 mmHg 87%
03:00 +21°C° 0 mm 3 m/s 748 mmHg 87%
04:00 +21°C° 0 mm 3 m/s 747 mmHg 88%
05:00 +22°C° 0.1 mm 3 m/s 748 mmHg 86%
06:00 +24°C° 0.1 mm 3 m/s 748 mmHg 84%
07:00 +23°C° 0.1 mm 4 m/s 749 mmHg 81%
08:00 +25°C° 0.4 mm 3 m/s 749 mmHg 76%
09:00 +26°C° 0.4 mm 3 m/s 749 mmHg 72%
10:00 +27°C° 0.4 mm 2 m/s 750 mmHg 67%
11:00 +27°C° 0.3 mm 2 m/s 749 mmHg 67%
12:00 +27°C° 0.3 mm 2 m/s 749 mmHg 67%
13:00 +27°C° 0.3 mm 2 m/s 749 mmHg 67%
14:00 +27°C° 0.6 mm 2 m/s 749 mmHg 69%
15:00 +27°C° 0.6 mm 2 m/s 749 mmHg 70%
16:00 +27°C° 0.6 mm 2 m/s 749 mmHg 71%
17:00 +26°C° 0.4 mm 2 m/s 749 mmHg 76%
18:00 +25°C° 0.4 mm 1 m/s 749 mmHg 81%
19:00 +24°C° 0.4 mm 1 m/s 749 mmHg 86%
20:00 +23°C° 0.3 mm 1 m/s 748 mmHg 88%
21:00 +23°C° 0.3 mm 1 m/s 748 mmHg 90%
22:00 +22°C° 0.3 mm 1 m/s 748 mmHg 93%
23:00 +22°C° 0.1 mm 1 m/s 748 mmHg 93%

22 Juin, Mardi

Heure Température Précipitation Vent Pression Humidité
00:00 +21°C° 0.1 mm 2 m/s 748 mmHg 93%
01:00 +20°C° 0.1 mm 2 m/s 747 mmHg 94%
02:00 +20°C° 0 mm 2 m/s 747 mmHg 94%
03:00 +20°C° 0 mm 2 m/s 747 mmHg 94%
04:00 +19°C° 0 mm 3 m/s 747 mmHg 94%
05:00 +21°C° 0 mm 3 m/s 747 mmHg 89%
06:00 +22°C° 0 mm 3 m/s 747 mmHg 84%
07:00 +25°C° 0 mm 4 m/s 747 mmHg 79%
08:00 +25°C° 0.3 mm 4 m/s 747 mmHg 76%
09:00 +26°C° 0.3 mm 4 m/s 748 mmHg 74%
10:00 +26°C° 0.3 mm 4 m/s 748 mmHg 71%
11:00 +26°C° 0.1 mm 4 m/s 748 mmHg 70%
12:00 +26°C° 0.1 mm 5 m/s 749 mmHg 68%
13:00 +26°C° 0.1 mm 6 m/s 749 mmHg 66%
14:00 +27°C° 0 mm 6 m/s 749 mmHg 62%
15:00 +27°C° 0 mm 5 m/s 749 mmHg 59%
16:00 +28°C° 0 mm 5 m/s 750 mmHg 56%
17:00 +27°C° 0 mm 4 m/s 750 mmHg 60%
18:00 +25°C° 0 mm 4 m/s 750 mmHg 64%
19:00 +24°C° 0 mm 3 m/s 750 mmHg 68%
20:00 +22°C° 0 mm 3 m/s 751 mmHg 71%
21:00 +21°C° 0 mm 2 m/s 751 mmHg 73%
22:00 +20°C° 0 mm 1 m/s 751 mmHg 76%
23:00 +20°C° 0 mm 1 m/s 751 mmHg 77%
Voir plus

Nous avons besoin de votre consentement

Meteoprog et ses fournisseurs de services peuvent stocker et accéder à des données personnelles telles que des cookies, des identifiants d'appareils ou d'autres technologies similaires sur votre appareil et traiter ces données pour personnaliser le contenu et les publicités, ainsi que pour fournir des fonctionnalités de médias sociaux et analyser le trafic.

  • Stocker et/ou accéder à des informations sur votre appareil

    Des cookies, des identifiants d'appareils ou d'autres informations peuvent être stockés ou accessibles sur votre appareil aux fins indiquées ci-dessus.

  • Annonces et contenus personnalisés, mesure des annonces et des contenus, connaissance de l'audience et développement de produits

    Les annonces et le contenu peuvent être personnalisés en fonction d'un profil. D'autres données peuvent être ajoutées pour mieux personnaliser les annonces et le contenu. Les performances des publicités et du contenu peuvent être mesurées. Il est possible d'obtenir des informations sur le public qui a vu les publicités et le contenu. Ces données peuvent être utilisées pour développer ou améliorer l'expérience de l'utilisateur, les systèmes et les logiciels.

En cliquant sur "J'accepte", vous autorisez l'utilisation de cookies, des identifiants d'appareils, des balises web ou d'autres technologies similaires. Vos paramètres peuvent être modifiés dans le navigateur de votre appareil.

Dans certains cas, des intérêts légitimes peuvent être invoqués plutôt qu'un consentement. Vous pouvez en savoir plus à ce sujet dans notre Politique de confidentialité et de cookies.